Location: Lanoux
(43.1180°N, 1.4255°E)
Time: 22:55:37
(UTC+00:00)

SL-16 R/B - Visible Passes

Search period start: 12 March 2026 00:00
Search period end: 22 March 2026 00:00
Orbit: 985 x 1006 km, 99.8° (Epoch: 12 March)

Date Brightness Start Highest point End Pass type
(mag) Time Alt. Az. Time Alt. Az. Time Alt. Az.
12 Mar 4.9 02:01:43 10° E 02:05:34 17° NE 02:09:25 10° NNE visible
12 Mar 2.4 03:42:07 10° SSE 03:48:18 88° WSW 03:54:33 10° NNW visible
12 Mar 4.0 05:29:48 10° WSW 05:32:41 13° W 05:35:35 10° WNW visible
13 Mar 4.3 02:30:42 10° ESE 02:35:49 28° ENE 02:40:58 10° N visible
13 Mar 2.6 04:13:04 10° S 04:19:02 52° W 04:25:06 10° NNW visible
13 Mar 5.2 18:40:54 10° NNW 18:44:39 17° NW 18:48:24 10° W visible
14 Mar 3.4 03:00:24 10° SE 03:06:13 46° ENE 03:12:06 10° N visible
14 Mar 3.2 04:44:36 10° SSW 04:49:55 30° W 04:55:19 10° NW visible
15 Mar 5.1 01:51:08 10° E 01:54:14 14° NE 01:57:21 10° NNE visible
15 Mar 2.6 03:30:37 10° SSE 03:36:46 77° ENE 03:43:00 10° NNW visible
15 Mar 3.8 05:17:04 10° SW 05:20:58 17° W 05:24:54 10° NW visible
16 Mar 4.6 02:19:43 10° ESE 02:24:25 23° ENE 02:29:10 10° N visible
16 Mar 2.4 04:01:21 10° S 04:07:28 64° WSW 04:13:39 10° NNW visible
16 Mar 5.1 18:28:57 10° NNW 18:33:19 20° WNW 18:37:40 10° WSW visible
17 Mar 3.8 02:49:10 10° SE 02:54:47 38° ENE 03:00:26 10° N visible
17 Mar 3.0 04:32:39 10° SSW 04:38:18 37° W 04:44:01 10° NNW visible
17 Mar 5.4 19:01:08 10° NNW 19:03:28 12° NW 19:05:48 10° WNW visible
18 Mar 5.3 01:40:54 10° ENE 01:42:55 12° NE 01:44:58 10° NNE visible
18 Mar 2.9 03:19:12 10° SSE 03:25:16 63° ENE 03:31:25 10° N visible
18 Mar 3.6 05:04:41 10° SW 05:09:16 22° W 05:13:55 10° NW visible
19 Mar 4.8 02:08:51 10° E 02:13:04 20° ENE 02:17:18 10° NNE visible
19 Mar 2.4 03:49:44 10° SSE 03:55:54 79° WSW 04:02:10 10° NNW visible
20 Mar 4.1 02:38:02 10° ESE 02:43:22 31° ENE 02:48:43 10° N visible
20 Mar 2.7 04:20:48 10° S 04:26:41 46° W 04:32:40 10° NNW visible
20 Mar 5.3 18:48:50 10° NNW 18:52:10 15° NW 18:55:29 10° W visible
21 Mar 3.3 03:07:51 10° SE 03:13:48 52° ENE 03:19:48 10° N visible
21 Mar 3.3 04:52:30 10° SSW 04:57:37 27° W 05:02:47 10° NW visible
